Time,TemperatureF,DewpointF,PressureIn,WindDirection,WindDirectionDegrees,WindSpeedMPH,WindSpeedGustMPH,Humidity,HourlyPrecipIn,Conditions,Clouds,dailyrainin,SoftwareType,DateUTC
2013-06-21 00:01:00,66.6,53.2,30.24,NNE,23,0.0,0.0,62,0.00,,,0.00,WUHU216HW,2013-06-21 04:01:00,
2013-06-21 00:02:00,66.6,53.2,30.24,NNE,23,0.0,0.0,62,0.00,,,0.00,WUHU216HW,2013-06-21 04:02:00,
2013-06-21 00:07:00,66.6,53.2,30.24,NNE,23,0.0,0.0,62,0.00,,,0.00,WUHU216HW,2013-06-21 04:07:00,
2013-06-21 00:12:00,66.4,53.0,30.24,NNE,23,0.0,0.0,62,0.00,,,0.00,WUHU216HW,2013-06-21 04:12:00,
2013-06-21 00:17:00,66.2,52.8,30.24,NNE,23,0.0,0.0,62,0.00,,,0.00,WUHU216HW,2013-06-21 04:17:00,
2013-06-21 00:22:00,65.9,52.9,30.24,NNE,23,0.0,0.0,63,0.00,,,0.00,WUHU216HW,2013-06-21 04:22:00,
2013-06-21 00:27:00,65.9,52.9,30.24,NNE,23,0.0,0.0,63,0.00,,,0.00,WUHU216HW,2013-06-21 04:27:00,
2013-06-21 00:32:00,65.5,53.0,30.24,NNE,23,0.0,0.0,64,0.00,,,0.00,WUHU216HW,2013-06-21 04:32:00,
2013-06-21 00:37:00,65.5,53.0,30.24,NNE,23,0.0,0.4,64,0.00,,,0.00,WUHU216HW,2013-06-21 04:37:00,
2013-06-21 00:43:00,65.3,52.8,30.25,NNE,23,0.0,0.4,64,0.00,,,0.00,WUHU216HW,2013-06-21 04:43:00,
2013-06-21 00:48:00,65.3,52.8,30.24,NNE,23,0.0,0.0,64,0.00,,,0.00,WUHU216HW,2013-06-21 04:48:00,
2013-06-21 00:53:00,65.2,53.1,30.25,NNE,23,0.0,0.0,65,0.00,,,0.00,WUHU216HW,2013-06-21 04:53:00,
2013-06-21 00:58:00,64.8,52.8,30.25,NNE,23,0.0,0.0,65,0.00,,,0.00,WUHU216HW,2013-06-21 04:58:00,
2013-06-21 01:03:00,64.8,52.8,30.25,NNE,23,0.0,0.0,65,0.00,,,0.00,WUHU216HW,2013-06-21 05:03:00,
2013-06-21 01:08:00,64.4,52.4,30.25,NNE,23,0.0,0.0,65,0.00,,,0.00,WUHU216HW,2013-06-21 05:08:00,
2013-06-21 01:13:00,64.3,52.7,30.25,NNE,23,0.0,0.0,66,0.00,,,0.00,WUHU216HW,2013-06-21 05:13:00,
2013-06-21 01:18:00,64.1,52.5,30.25,NNE,23,0.0,0.0,66,0.00,,,0.00,WUHU216HW,2013-06-21 05:18:00,
2013-06-21 01:23:00,63.9,52.3,30.25,NNE,23,0.0,0.0,66,0.00,,,0.00,WUHU216HW,2013-06-21 05:23:00,
2013-06-21 01:29:00,63.7,52.6,30.25,NNE,23,0.0,0.0,67,0.00,,,0.00,WUHU216HW,2013-06-21 05:29:00,
2013-06-21 01:34:00,63.7,52.6,30.26,NNE,23,0.0,0.0,67,0.00,,,0.00,WUHU216HW,2013-06-21 05:34:00,
2013-06-21 01:39:00,63.7,52.6,30.26,NNE,23,0.0,0.0,67,0.00,,,0.00,WUHU216HW,2013-06-21 05:39:00,
2013-06-21 01:44:00,63.7,53.0,30.26,NNE,23,0.0,0.0,68,0.00,,,0.00,WUHU216HW,2013-06-21 05:44:00,
2013-06-21 01:49:00,63.5,52.8,30.26,NNE,23,0.0,0.0,68,0.00,,,0.00,WUHU216HW,2013-06-21 05:49:00,
2013-06-21 01:54:00,63.5,52.8,30.26,NNE,23,0.0,0.0,68,0.00,,,0.00,WUHU216HW,2013-06-21 05:54:00,
2013-06-21 01:59:00,63.2,52.8,30.26,NNE,23,0.0,0.0,69,0.00,,,0.00,WUHU216HW,2013-06-21 05:59:00,
2013-06-21 02:05:00,63.0,52.7,30.26,NNE,23,0.0,0.0,69,0.00,,,0.00,WUHU216HW,2013-06-21 06:05:00,
2013-06-21 02:10:00,63.0,52.7,30.26,NNE,23,0.0,0.0,69,0.00,,,0.00,WUHU216HW,2013-06-21 06:10:00,
2013-06-21 02:15:00,62.8,52.9,30.26,NNE,23,0.0,0.0,70,0.00,,,0.00,WUHU216HW,2013-06-21 06:15:00,
2013-06-21 02:20:00,62.6,52.7,30.26,NNE,23,0.0,0.0,70,0.00,,,0.00,WUHU216HW,2013-06-21 06:20:00,
2013-06-21 02:25:00,62.3,52.4,30.26,NNE,23,0.0,0.0,70,0.00,,,0.00,WUHU216HW,2013-06-21 06:25:00,
2013-06-21 02:30:00,62.1,52.3,30.26,NNE,23,0.0,0.0,70,0.00,,,0.00,WUHU216HW,2013-06-21 06:30:00,
2013-06-21 02:35:00,61.9,52.1,30.26,NNE,23,0.0,0.0,70,0.00,,,0.00,WUHU216HW,2013-06-21 06:35:00,
2013-06-21 02:40:00,61.9,52.1,30.26,NNE,23,0.0,0.0,70,0.00,,,0.00,WUHU216HW,2013-06-21 06:40:00,
2013-06-21 02:45:00,61.6,51.8,30.26,NNE,23,0.0,0.0,70,0.00,,,0.00,WUHU216HW,2013-06-21 06:45:00,
2013-06-21 02:51:00,61.6,52.1,30.26,NNE,23,0.0,0.0,71,0.00,,,0.00,WUHU216HW,2013-06-21 06:51:00,
2013-06-21 02:56:00,61.6,52.1,30.26,NNE,23,0.0,0.0,71,0.00,,,0.00,WUHU216HW,2013-06-21 06:56:00,
2013-06-21 03:01:00,61.4,52.3,30.26,NNE,23,0.0,0.0,72,0.00,,,0.00,WUHU216HW,2013-06-21 07:01:00,
2013-06-21 03:06:00,61.2,52.2,30.26,NNE,23,0.0,0.0,72,0.00,,,0.00,WUHU216HW,2013-06-21 07:06:00,
2013-06-21 03:11:00,61.0,52.0,30.25,NNE,23,0.0,0.0,72,0.00,,,0.00,WUHU216HW,2013-06-21 07:11:00,
2013-06-21 03:16:00,60.8,51.8,30.25,NNE,23,0.0,0.0,72,0.00,,,0.00,WUHU216HW,2013-06-21 07:16:00,
2013-06-21 03:21:00,60.8,52.2,30.25,NNE,23,0.0,0.0,73,0.00,,,0.00,WUHU216HW,2013-06-21 07:21:00,
2013-06-21 03:27:00,60.7,52.0,30.25,North,0,0.0,0.0,73,0.00,,,0.00,WUHU216HW,2013-06-21 07:27:00,
2013-06-21 03:32:00,60.7,52.0,30.25,North,0,0.0,0.0,73,0.00,,,0.00,WUHU216HW,2013-06-21 07:32:00,
2013-06-21 03:37:00,60.5,52.2,30.25,North,0,0.0,0.0,74,0.00,,,0.00,WUHU216HW,2013-06-21 07:37:00,
2013-06-21 03:42:00,60.5,52.2,30.25,North,0,0.0,0.0,74,0.00,,,0.00,WUHU216HW,2013-06-21 07:42:00,
2013-06-21 03:47:00,60.5,52.2,30.24,North,0,0.0,0.0,74,0.00,,,0.00,WUHU216HW,2013-06-21 07:47:00,
2013-06-21 03:52:00,60.5,52.2,30.24,North,0,0.0,0.0,74,0.00,,,0.00,WUHU216HW,2013-06-21 07:52:00,
2013-06-21 03:57:00,60.3,52.0,30.24,North,0,0.0,0.0,74,0.00,,,0.00,WUHU216HW,2013-06-21 07:57:00,
2013-06-21 04:02:00,60.3,52.4,30.24,North,0,0.0,0.0,75,0.00,,,0.00,WUHU216HW,2013-06-21 08:02:00,
2013-06-21 04:08:00,60.3,52.4,30.24,North,0,0.0,0.0,75,0.00,,,0.00,WUHU216HW,2013-06-21 08:08:00,
2013-06-21 04:13:00,60.1,52.2,30.24,North,0,0.0,0.0,75,0.00,,,0.00,WUHU216HW,2013-06-21 08:13:00,
2013-06-21 04:18:00,60.1,52.2,30.24,North,0,0.0,0.0,75,0.00,,,0.00,WUHU216HW,2013-06-21 08:18:00,
2013-06-21 04:23:00,60.1,52.2,30.24,North,0,0.0,0.0,75,0.00,,,0.00,WUHU216HW,2013-06-21 08:23:00,
2013-06-21 04:28:00,59.9,52.4,30.24,North,0,0.0,0.0,76,0.00,,,0.00,WUHU216HW,2013-06-21 08:28:00,
2013-06-21 04:33:00,59.8,52.2,30.24,North,0,0.0,0.0,76,0.00,,,0.00,WUHU216HW,2013-06-21 08:33:00,
2013-06-21 04:38:00,59.8,52.2,30.24,North,0,0.0,0.0,76,0.00,,,0.00,WUHU216HW,2013-06-21 08:38:00,
2013-06-21 04:43:00,59.8,52.2,30.24,North,0,0.0,0.0,76,0.00,,,0.00,WUHU216HW,2013-06-21 08:43:00,
2013-06-21 04:48:00,59.6,52.0,30.24,North,0,0.0,0.0,76,0.00,,,0.00,WUHU216HW,2013-06-21 08:48:00,
2013-06-21 04:54:00,59.4,51.8,30.24,North,0,0.0,0.0,76,0.00,,,0.00,WUHU216HW,2013-06-21 08:54:00,
2013-06-21 04:59:00,59.4,52.2,30.24,North,0,0.0,0.0,77,0.00,,,0.00,WUHU216HW,2013-06-21 08:59:00,
2013-06-21 05:04:00,59.2,52.4,30.24,North,0,0.0,0.0,78,0.00,,,0.00,WUHU216HW,2013-06-21 09:04:00,
2013-06-21 05:09:00,59.0,52.2,30.24,NNE,23,0.0,0.0,78,0.00,,,0.00,WUHU216HW,2013-06-21 09:09:00,
2013-06-21 05:14:00,59.0,52.2,30.24,North,0,0.0,0.0,78,0.00,,,0.00,WUHU216HW,2013-06-21 09:14:00,
2013-06-21 05:19:00,59.0,52.6,30.24,North,0,0.0,0.0,79,0.00,,,0.00,WUHU216HW,2013-06-21 09:19:00,
2013-06-21 05:24:00,59.0,52.6,30.24,North,0,0.0,0.0,79,0.00,,,0.00,WUHU216HW,2013-06-21 09:24:00,
2013-06-21 05:29:00,59.0,52.6,30.24,NNE,23,0.0,0.0,79,0.00,,,0.00,WUHU216HW,2013-06-21 09:29:00,
2013-06-21 05:35:00,59.0,52.6,30.25,NNE,23,0.0,0.0,79,0.00,,,0.00,WUHU216HW,2013-06-21 09:35:00,
2013-06-21 05:40:00,59.0,52.6,30.25,NNE,23,0.0,0.0,79,0.00,,,0.00,WUHU216HW,2013-06-21 09:40:00,
2013-06-21 05:45:00,59.0,52.6,30.25,NNE,23,0.0,0.0,79,0.00,,,0.00,WUHU216HW,2013-06-21 09:45:00,
2013-06-21 05:50:00,59.0,52.9,30.25,NNE,23,0.0,0.0,80,0.00,,,0.00,WUHU216HW,2013-06-21 09:50:00,
2013-06-21 05:55:00,59.0,52.9,30.24,NNE,23,0.0,0.0,80,0.00,,,0.00,WUHU216HW,2013-06-21 09:55:00,
2013-06-21 06:00:00,59.0,52.9,30.24,North,0,0.0,0.0,80,0.00,,,0.00,WUHU216HW,2013-06-21 10:00:00,
2013-06-21 06:05:00,59.0,53.3,30.25,North,0,0.0,0.0,81,0.00,,,0.00,WUHU216HW,2013-06-21 10:05:00,
2013-06-21 06:10:00,59.0,53.3,30.25,North,0,0.0,0.0,81,0.00,,,0.00,WUHU216HW,2013-06-21 10:10:00,
2013-06-21 06:16:00,59.0,53.3,30.25,North,0,0.0,0.0,81,0.00,,,0.00,WUHU216HW,2013-06-21 10:16:00,
2013-06-21 06:21:00,59.2,53.5,30.25,North,0,0.0,0.0,81,0.00,,,0.00,WUHU216HW,2013-06-21 10:21:00,
2013-06-21 06:26:00,59.2,53.5,30.25,North,0,0.0,0.0,81,0.00,,,0.00,WUHU216HW,2013-06-21 10:26:00,
2013-06-21 06:31:00,59.2,53.5,30.25,North,0,0.0,0.0,81,0.00,,,0.00,WUHU216HW,2013-06-21 10:31:00,
2013-06-21 06:36:00,59.2,53.5,30.25,North,0,0.0,0.0,81,0.00,,,0.00,WUHU216HW,2013-06-21 10:36:00,
2013-06-21 07:00:00,61.0,55.2,30.26,North,0,0.0,0.0,81,0.00,,,0.00,WUHU216HW,2013-06-21 11:00:00,
2013-06-21 07:05:00,61.2,55.4,30.26,North,0,0.0,0.0,81,0.00,,,0.00,WUHU216HW,2013-06-21 11:05:00,
2013-06-21 07:10:00,61.4,55.5,30.27,North,0,0.0,0.0,81,0.00,,,0.00,WUHU216HW,2013-06-21 11:10:00,
2013-06-21 07:15:00,61.7,55.9,30.27,North,0,0.0,0.0,81,0.00,,,0.00,WUHU216HW,2013-06-21 11:15:00,
2013-06-21 07:20:00,62.1,56.2,30.27,North,0,0.0,0.0,81,0.00,,,0.00,WUHU216HW,2013-06-21 11:20:00,
2013-06-21 07:26:00,62.3,56.3,30.27,NE,45,0.0,0.0,81,0.00,,,0.00,WUHU216HW,2013-06-21 11:26:00,
2013-06-21 07:31:00,62.6,56.3,30.27,NE,45,0.0,0.0,80,0.00,,,0.00,WUHU216HW,2013-06-21 11:31:00,
2013-06-21 07:36:00,63.4,56.7,30.27,NE,45,0.0,0.0,79,0.00,,,0.00,WUHU216HW,2013-06-21 11:36:00,
2013-06-21 07:41:00,63.9,57.6,30.27,NE,45,0.0,0.0,80,0.00,,,0.00,WUHU216HW,2013-06-21 11:41:00,
2013-06-21 07:46:00,64.4,57.8,30.27,NNE,23,0.0,0.0,79,0.00,,,0.00,WUHU216HW,2013-06-21 11:46:00,
2013-06-21 07:51:00,64.4,57.8,30.27,NNE,23,0.0,0.0,79,0.00,,,0.00,WUHU216HW,2013-06-21 11:51:00,
2013-06-21 08:00:00,66.4,58.6,30.28,South,180,0.0,0.0,76,0.00,,,0.00,WUHU216HW,2013-06-21 12:00:00,
2013-06-21 08:05:00,67.9,59.7,30.28,SSE,158,0.0,0.0,75,0.00,,,0.00,WUHU216HW,2013-06-21 12:05:00,
2013-06-21 08:10:00,70.4,61.7,30.28,South,180,0.0,0.0,74,0.00,,,0.00,WUHU216HW,2013-06-21 12:10:00,
2013-06-21 08:15:00,72.7,62.8,30.28,SE,135,0.0,0.0,71,0.00,,,0.00,WUHU216HW,2013-06-21 12:15:00,
2013-06-21 08:20:00,75.4,64.5,30.28,SSE,158,0.0,0.0,69,0.00,,,0.00,WUHU216HW,2013-06-21 12:20:00,
2013-06-21 08:26:00,77.8,65.5,30.28,SSE,158,0.0,0.0,66,0.00,,,0.00,WUHU216HW,2013-06-21 12:26:00,
2013-06-21 08:31:00,78.8,65.6,30.28,SE,135,0.0,0.0,64,0.00,,,0.00,WUHU216HW,2013-06-21 12:31:00,
2013-06-21 08:36:00,80.1,65.1,30.28,WSW,248,0.0,0.0,60,0.00,,,0.00,WUHU216HW,2013-06-21 12:36:00,
2013-06-21 08:41:00,77.0,61.1,30.28,ESE,113,0.0,0.0,58,0.00,,,0.00,WUHU216HW,2013-06-21 12:41:00,
2013-06-21 08:46:00,75.8,60.9,30.28,NNE,23,0.0,0.0,60,0.00,,,0.00,WUHU216HW,2013-06-21 12:46:00,
2013-06-21 08:51:00,74.9,60.1,30.28,North,0,0.0,0.0,60,0.00,,,0.00,WUHU216HW,2013-06-21 12:51:00,
2013-06-21 08:56:00,74.2,58.9,30.28,ESE,113,0.0,0.0,59,0.00,,,0.00,WUHU216HW,2013-06-21 12:56:00,
2013-06-21 09:01:00,73.4,58.7,30.28,NNE,23,0.0,0.0,60,0.00,,,0.00,WUHU216HW,2013-06-21 13:01:00,
2013-06-21 09:06:00,73.1,58.3,30.28,NE,45,0.0,0.0,60,0.00,,,0.00,WUHU216HW,2013-06-21 13:06:00,
2013-06-21 09:11:00,72.7,58.1,30.27,SE,135,0.0,0.0,60,0.00,,,0.00,WUHU216HW,2013-06-21 13:11:00,
2013-06-21 09:16:00,72.9,58.7,30.27,North,0,0.0,0.0,61,0.00,,,0.00,WUHU216HW,2013-06-21 13:16:00,
2013-06-21 09:21:00,73.1,58.8,30.27,NE,45,0.0,0.0,61,0.00,,,0.00,WUHU216HW,2013-06-21 13:21:00,
2013-06-21 09:27:00,73.1,58.8,30.27,NNE,23,0.0,0.0,61,0.00,,,0.00,WUHU216HW,2013-06-21 13:27:00,
2013-06-21 09:32:00,73.1,58.8,30.27,NE,45,0.0,0.0,61,0.00,,,0.00,WUHU216HW,2013-06-21 13:32:00,
2013-06-21 09:37:00,73.3,59.0,30.27,SE,135,0.0,0.0,61,0.00,,,0.00,WUHU216HW,2013-06-21 13:37:00,
2013-06-21 09:42:00,73.4,59.1,30.27,SSW,203,0.0,0.0,61,0.00,,,0.00,WUHU216HW,2013-06-21 13:42:00,
2013-06-21 09:47:00,74.0,59.7,30.27,ESE,113,0.0,0.0,61,0.00,,,0.00,WUHU216HW,2013-06-21 13:47:00,
2013-06-21 09:52:00,74.5,59.8,30.27,SSW,203,0.0,0.0,60,0.00,,,0.00,WUHU216HW,2013-06-21 13:52:00,
2013-06-21 09:57:00,74.2,57.9,30.27,WSW,248,0.0,0.0,57,0.00,,,0.00,WUHU216HW,2013-06-21 13:57:00,
2013-06-21 10:02:00,74.2,58.4,30.27,SSW,203,0.0,0.0,58,0.00,,,0.00,WUHU216HW,2013-06-21 14:02:00,
2013-06-21 10:08:00,74.2,58.4,30.27,SSW,203,0.0,0.0,58,0.00,,,0.00,WUHU216HW,2013-06-21 14:08:00,
2013-06-21 10:32:00,76.5,56.6,30.27,SW,225,0.0,0.0,50,0.00,,,0.00,WUHU216HW,2013-06-21 14:32:00,
2013-06-21 10:37:00,77.2,57.3,30.27,ENE,68,0.0,0.0,50,0.00,,,0.00,WUHU216HW,2013-06-21 14:37:00,
2013-06-21 10:42:00,77.2,57.3,30.27,ENE,68,0.0,0.0,50,0.00,,,0.00,WUHU216HW,2013-06-21 14:42:00,
2013-06-21 11:00:00,81.2,60.2,30.27,WSW,248,0.0,0.0,49,0.00,,,0.00,WUHU216HW,2013-06-21 15:00:00,
2013-06-21 11:05:00,81.7,58.9,30.27,SW,225,0.0,0.0,46,0.00,,,0.00,WUHU216HW,2013-06-21 15:05:00,
2013-06-21 11:10:00,82.3,58.1,30.27,West,270,0.0,0.0,44,0.00,,,0.00,WUHU216HW,2013-06-21 15:10:00,
2013-06-21 11:15:00,82.6,60.3,30.27,SSW,203,0.0,0.0,47,0.00,,,0.00,WUHU216HW,2013-06-21 15:15:00,
2013-06-21 11:20:00,83.9,60.2,30.27,SSW,203,1.3,1.3,45,0.00,,,0.00,WUHU216HW,2013-06-21 15:20:00,
2013-06-21 11:25:00,84.1,59.8,30.27,West,270,0.4,1.3,44,0.00,,,0.00,WUHU216HW,2013-06-21 15:25:00,
2013-06-21 11:30:00,84.2,60.6,30.27,NNE,23,1.1,1.3,45,0.00,,,0.00,WUHU216HW,2013-06-21 15:30:00,
2013-06-21 11:35:00,84.6,60.9,30.27,WSW,248,0.0,1.1,45,0.00,,,0.00,WUHU216HW,2013-06-21 15:35:00,
2013-06-21 11:40:00,85.0,61.2,30.27,SSE,158,1.3,1.3,45,0.00,,,0.00,WUHU216HW,2013-06-21 15:40:00,
2013-06-21 11:45:00,84.6,60.9,30.27,West,270,0.0,1.3,45,0.00,,,0.00,WUHU216HW,2013-06-21 15:45:00,
2013-06-21 11:50:00,84.8,57.9,30.27,West,270,1.8,1.8,40,0.00,,,0.00,WUHU216HW,2013-06-21 15:50:00,
2013-06-21 11:56:00,84.2,58.7,30.27,WSW,248,1.6,1.8,42,0.00,,,0.00,WUHU216HW,2013-06-21 15:56:00,
2013-06-21 12:01:00,83.9,59.0,30.27,WSW,248,0.9,1.8,43,0.00,,,0.00,WUHU216HW,2013-06-21 16:01:00,
2013-06-21 12:06:00,85.0,61.2,30.26,NW,315,1.1,1.6,45,0.00,,,0.00,WUHU216HW,2013-06-21 16:06:00,
2013-06-21 12:11:00,85.3,61.6,30.27,NW,315,0.4,1.1,45,0.00,,,0.00,WUHU216HW,2013-06-21 16:11:00,
2013-06-21 12:16:00,85.3,60.9,30.27,SE,135,2.2,2.2,44,0.00,,,0.00,WUHU216HW,2013-06-21 16:16:00,
2013-06-21 12:21:00,84.2,58.1,30.27,WSW,248,1.8,2.2,41,0.00,,,0.00,WUHU216HW,2013-06-21 16:21:00,
2013-06-21 12:26:00,84.2,59.3,30.27,North,0,0.9,1.8,43,0.00,,,0.00,WUHU216HW,2013-06-21 16:26:00,
2013-06-21 12:31:00,84.6,60.3,30.27,North,0,0.9,0.9,44,0.00,,,0.00,WUHU216HW,2013-06-21 16:31:00,
2013-06-21 12:36:00,85.0,60.6,30.27,SE,135,2.0,2.0,44,0.00,,,0.00,WUHU216HW,2013-06-21 16:36:00,
2013-06-21 12:41:00,85.0,59.9,30.26,South,180,0.0,2.0,43,0.00,,,0.00,WUHU216HW,2013-06-21 16:41:00,
2013-06-21 12:46:00,85.1,60.8,30.26,North,0,0.0,1.1,44,0.00,,,0.00,WUHU216HW,2013-06-21 16:46:00,
2013-06-21 12:52:00,85.1,60.1,30.26,North,0,0.7,1.1,43,0.00,,,0.00,WUHU216HW,2013-06-21 16:52:00,
2013-06-21 12:57:00,85.1,59.5,30.25,SSW,203,1.6,1.8,42,0.00,,,0.00,WUHU216HW,2013-06-21 16:57:00,
2013-06-21 13:02:00,84.6,59.1,30.25,SW,225,1.6,1.8,42,0.00,,,0.00,WUHU216HW,2013-06-21 17:02:00,
2013-06-21 13:08:00,84.2,58.7,30.25,WSW,248,0.0,1.8,42,0.00,,,0.00,WUHU216HW,2013-06-21 17:08:00,
2013-06-21 13:13:00,84.2,58.7,30.26,NNW,338,0.7,1.8,42,0.00,,,0.00,WUHU216HW,2013-06-21 17:13:00,
2013-06-21 13:18:00,84.6,60.3,30.26,WSW,248,2.2,2.2,44,0.00,,,0.00,WUHU216HW,2013-06-21 17:18:00,
2013-06-21 13:23:00,84.8,59.1,30.26,WSW,248,1.3,2.2,42,0.00,,,0.00,WUHU216HW,2013-06-21 17:23:00,
2013-06-21 13:28:00,85.1,58.9,30.26,WNW,293,0.0,1.3,41,0.00,,,0.00,WUHU216HW,2013-06-21 17:28:00,
2013-06-21 13:33:00,84.8,57.9,30.25,NNW,338,0.0,0.4,40,0.00,,,0.00,WUHU216HW,2013-06-21 17:33:00,
2013-06-21 13:39:00,85.0,59.3,30.25,SW,225,1.3,1.6,42,0.00,,,0.00,WUHU216HW,2013-06-21 17:39:00,
2013-06-21 13:44:00,85.1,58.9,30.25,East,90,0.2,1.6,41,0.00,,,0.00,WUHU216HW,2013-06-21 17:44:00,
2013-06-21 13:46:00,85.3,57.6,30.25,WNW,293,0.7,1.3,39,0.00,,,0.00,WUHU216HW,2013-06-21 17:46:00,
2013-06-21 13:47:00,85.3,57.6,30.25,WNW,293,0.7,1.3,39,0.00,,,0.00,WUHU216HW,2013-06-21 17:47:00,
2013-06-21 13:52:00,85.3,57.6,30.25,WSW,248,0.4,0.7,39,0.00,,,0.00,WUHU216HW,2013-06-21 17:52:00,
2013-06-21 13:57:00,85.5,59.2,30.25,NNE,23,1.6,1.6,41,0.00,,,0.00,WUHU216HW,2013-06-21 17:57:00,
2013-06-21 14:02:00,85.3,58.4,30.25,NNE,23,0.4,1.6,40,0.00,,,0.00,WUHU216HW,2013-06-21 18:02:00,
2013-06-21 14:07:00,85.7,57.2,30.25,WSW,248,2.7,2.7,38,0.00,,,0.00,WUHU216HW,2013-06-21 18:07:00,
2013-06-21 14:12:00,85.7,57.2,30.25,WSW,248,2.7,2.7,38,0.00,,,0.00,WUHU216HW,2013-06-21 18:12:00,
2013-06-21 14:17:00,85.7,58.0,30.24,WSW,248,1.3,2.7,39,0.00,,,0.00,WUHU216HW,2013-06-21 18:17:00,
2013-06-21 14:22:00,85.3,58.4,30.24,SSW,203,1.1,1.3,40,0.00,,,0.00,WUHU216HW,2013-06-21 18:22:00,
2013-06-21 14:23:00,85.3,57.6,30.24,WSW,248,2.7,2.7,39,0.00,,,0.00,WUHU216HW,2013-06-21 18:23:00,
2013-06-21 14:24:00,85.3,57.6,30.24,WSW,248,2.7,2.7,39,0.00,,,0.00,WUHU216HW,2013-06-21 18:24:00,
2013-06-21 14:25:00,85.3,57.6,30.24,WSW,248,2.7,2.7,39,0.00,,,0.00,WUHU216HW,2013-06-21 18:25:00,
2013-06-21 14:30:00,85.3,56.8,30.24,WNW,293,1.3,2.7,38,0.00,,,0.00,WUHU216HW,2013-06-21 18:30:00,
2013-06-21 14:35:00,85.9,59.5,30.24,SW,225,0.7,2.7,41,0.00,,,0.00,WUHU216HW,2013-06-21 18:35:00,
2013-06-21 14:40:00,85.7,58.7,30.24,SW,225,2.2,2.2,40,0.00,,,0.00,WUHU216HW,2013-06-21 18:40:00,
2013-06-21 14:45:00,86.0,59.7,30.24,SW,225,1.3,2.2,41,0.00,,,0.00,WUHU216HW,2013-06-21 18:45:00,
2013-06-21 14:46:00,86.0,59.7,30.25,SW,225,1.3,2.2,41,0.00,,,0.00,WUHU216HW,2013-06-21 18:46:00,
2013-06-21 14:47:00,86.4,60.7,30.25,North,0,0.9,2.2,42,0.00,,,0.00,WUHU216HW,2013-06-21 18:47:00,
2013-06-21 14:52:00,86.4,58.6,30.25,SW,225,1.1,1.3,39,0.00,,,0.00,WUHU216HW,2013-06-21 18:52:00,
2013-06-21 14:57:00,85.7,58.7,30.24,West,270,0.0,1.1,40,0.00,,,0.00,WUHU216HW,2013-06-21 18:57:00,
2013-06-21 15:02:00,85.7,59.9,30.25,WSW,248,1.1,1.1,42,0.00,,,0.00,WUHU216HW,2013-06-21 19:02:00,
2013-06-21 15:07:00,85.7,59.3,30.24,SSE,158,0.7,1.6,41,0.00,,,0.00,WUHU216HW,2013-06-21 19:07:00,
2013-06-21 15:13:00,85.9,59.5,30.24,SW,225,2.5,2.5,41,0.00,,,0.00,WUHU216HW,2013-06-21 19:13:00,
2013-06-21 15:18:00,85.9,59.5,30.24,SW,225,2.5,2.5,41,0.00,,,0.00,WUHU216HW,2013-06-21 19:18:00,
2013-06-21 15:21:00,85.9,59.5,30.24,SW,225,2.5,2.5,41,0.00,,,0.00,WUHU216HW,2013-06-21 19:21:00,
2013-06-21 15:43:00,86.0,57.4,30.24,SW,225,0.9,0.9,38,0.00,,,0.00,WUHU216HW,2013-06-21 19:43:00,
2013-06-21 15:47:00,86.0,57.4,30.24,SW,225,0.9,0.9,38,0.00,,,0.00,WUHU216HW,2013-06-21 19:47:00,
2013-06-21 15:52:00,86.0,57.4,30.24,SW,225,0.9,0.9,38,0.00,,,0.00,WUHU216HW,2013-06-21 19:52:00,
2013-06-21 16:00:00,85.9,57.3,30.24,NNE,23,1.1,1.1,38,0.00,,,0.00,WUHU216HW,2013-06-21 20:00:00,
2013-06-21 17:09:00,88.2,55.3,30.22,SSE,158,0.4,0.4,33,0.00,,,0.00,WUHU216HW,2013-06-21 21:09:00,
2013-06-21 17:11:00,88.2,55.3,30.22,SSE,158,0.4,0.4,33,0.00,,,0.00,WUHU216HW,2013-06-21 21:11:00,
2013-06-21 17:16:00,88.9,56.7,30.21,West,270,0.2,0.4,34,0.00,,,0.00,WUHU216HW,2013-06-21 21:16:00,
2013-06-21 17:21:00,88.7,52.3,30.21,West,270,2.7,2.7,29,0.00,,,0.00,WUHU216HW,2013-06-21 21:21:00,
2013-06-21 17:26:00,87.8,53.4,30.22,WSW,248,0.0,2.7,31,0.00,,,0.00,WUHU216HW,2013-06-21 21:26:00,
2013-06-21 17:31:00,87.5,54.7,30.22,WSW,248,1.3,2.7,33,0.00,,,0.00,WUHU216HW,2013-06-21 21:31:00,
2013-06-21 17:36:00,88.0,56.0,30.21,South,180,0.0,1.3,34,0.00,,,0.00,WUHU216HW,2013-06-21 21:36:00,
2013-06-21 17:41:00,90.0,57.7,30.21,SW,225,0.9,1.1,34,0.00,,,0.00,WUHU216HW,2013-06-21 21:41:00,
2013-06-21 17:47:00,90.4,57.3,30.22,SW,225,0.0,0.9,33,0.00,,,0.00,WUHU216HW,2013-06-21 21:47:00,
2013-06-21 17:52:00,92.2,58.0,30.22,NNE,23,0.4,0.4,32,0.00,,,0.00,WUHU216HW,2013-06-21 21:52:00,
2013-06-21 17:57:00,92.3,56.5,30.21,NE,45,0.4,0.4,30,0.00,,,0.00,WUHU216HW,2013-06-21 21:57:00,
2013-06-21 18:02:00,92.3,57.3,30.21,North,0,0.0,0.4,31,0.00,,,0.00,WUHU216HW,2013-06-21 22:02:00,
2013-06-21 18:07:00,92.5,56.7,30.21,West,270,0.2,0.4,30,0.00,,,0.00,WUHU216HW,2013-06-21 22:07:00,
2013-06-21 18:12:00,90.5,55.8,30.21,East,90,0.0,0.2,31,0.00,,,0.00,WUHU216HW,2013-06-21 22:12:00,
2013-06-21 18:17:00,88.6,54.8,30.21,East,90,0.0,0.2,32,0.00,,,0.00,WUHU216HW,2013-06-21 22:17:00,
2013-06-21 18:23:00,86.9,52.7,30.21,WSW,248,3.4,3.4,31,0.00,,,0.00,WUHU216HW,2013-06-21 22:23:00,
2013-06-21 18:28:00,84.8,52.4,30.21,East,90,1.3,3.4,33,0.00,,,0.00,WUHU216HW,2013-06-21 22:28:00,
2013-06-21 18:33:00,83.5,52.8,30.21,ESE,113,0.0,1.3,35,0.00,,,0.00,WUHU216HW,2013-06-21 22:33:00,
2013-06-21 18:38:00,83.0,53.1,30.21,WSW,248,0.7,0.7,36,0.00,,,0.00,WUHU216HW,2013-06-21 22:38:00,
2013-06-21 18:43:00,82.4,53.5,30.21,SSW,203,0.0,0.7,37,0.00,,,0.00,WUHU216HW,2013-06-21 22:43:00,
2013-06-21 18:48:00,82.1,53.9,30.21,WSW,248,0.7,0.7,38,0.00,,,0.00,WUHU216HW,2013-06-21 22:48:00,
2013-06-21 18:53:00,81.5,53.5,30.21,NNE,23,2.0,2.0,38,0.00,,,0.00,WUHU216HW,2013-06-21 22:53:00,
2013-06-21 18:58:00,81.4,54.1,30.21,NNE,23,0.2,2.0,39,0.00,,,0.00,WUHU216HW,2013-06-21 22:58:00,
2013-06-21 19:03:00,81.0,53.7,30.21,WSW,248,1.1,2.0,39,0.00,,,0.00,WUHU216HW,2013-06-21 23:03:00,
2013-06-21 19:08:00,81.0,54.6,30.21,WSW,248,0.4,1.1,40,0.00,,,0.00,WUHU216HW,2013-06-21 23:08:00,
2013-06-21 19:14:00,80.6,54.2,30.21,WSW,248,0.0,1.1,40,0.00,,,0.00,WUHU216HW,2013-06-21 23:14:00,
2013-06-21 19:19:00,80.3,54.5,30.20,ENE,68,0.0,0.9,41,0.00,,,0.00,WUHU216HW,2013-06-21 23:19:00,
2013-06-21 19:24:00,80.1,54.3,30.20,NW,315,0.0,0.9,41,0.00,,,0.00,WUHU216HW,2013-06-21 23:24:00,
2013-06-21 19:29:00,79.9,54.7,30.21,NW,315,0.0,0.0,42,0.00,,,0.00,WUHU216HW,2013-06-21 23:29:00,
2013-06-21 19:34:00,79.4,54.9,30.21,NW,315,0.0,0.0,43,0.00,,,0.00,WUHU216HW,2013-06-21 23:34:00,
2013-06-21 19:39:00,79.2,55.4,30.21,NW,315,0.0,0.0,44,0.00,,,0.00,WUHU216HW,2013-06-21 23:39:00,
2013-06-21 19:44:00,79.0,55.2,30.20,North,0,0.4,0.4,44,0.00,,,0.00,WUHU216HW,2013-06-21 23:44:00,
2013-06-21 19:49:00,78.5,55.9,30.21,NNW,338,0.0,0.4,46,0.00,,,0.00,WUHU216HW,2013-06-21 23:49:00,
2013-06-21 19:55:00,78.5,55.9,30.20,NW,315,0.0,0.0,46,0.00,,,0.00,WUHU216HW,2013-06-21 23:55:00,
2013-06-21 20:00:00,78.3,56.3,30.20,West,270,0.0,0.0,47,0.00,,,0.00,WUHU216HW,2013-06-22 00:00:00,
2013-06-21 20:05:00,77.9,57.2,30.20,SSW,203,0.4,0.4,49,0.00,,,0.00,WUHU216HW,2013-06-22 00:05:00,
2013-06-21 20:10:00,77.9,57.2,30.20,North,0,0.9,0.9,49,0.00,,,0.00,WUHU216HW,2013-06-22 00:10:00,
2013-06-21 20:15:00,77.8,57.1,30.20,North,0,1.1,1.1,49,0.00,,,0.00,WUHU216HW,2013-06-22 00:15:00,
2013-06-21 20:20:00,77.4,57.4,30.20,SW,225,1.1,2.5,50,0.00,,,0.00,WUHU216HW,2013-06-22 00:20:00,
2013-06-21 20:25:00,77.4,57.4,30.20,North,0,0.2,2.5,50,0.00,,,0.00,WUHU216HW,2013-06-22 00:25:00,
2013-06-21 20:30:00,77.0,57.1,30.20,South,180,0.2,1.1,50,0.00,,,0.00,WUHU216HW,2013-06-22 00:30:00,
2013-06-21 20:36:00,76.9,56.9,30.20,North,0,0.0,0.2,50,0.00,,,0.00,WUHU216HW,2013-06-22 00:36:00,
2013-06-21 20:40:00,76.3,56.4,30.20,North,0,0.0,0.2,50,0.00,,,0.00,WUHU216HW,2013-06-22 00:40:00,
2013-06-21 20:46:00,76.3,56.9,30.20,NNE,23,0.0,0.0,51,0.00,,,0.00,WUHU216HW,2013-06-22 00:46:00,
2013-06-21 20:51:00,76.0,56.6,30.20,NNE,23,0.0,0.0,51,0.00,,,0.00,WUHU216HW,2013-06-22 00:51:00,
2013-06-21 20:56:00,75.6,56.3,30.20,WNW,293,0.0,0.0,51,0.00,,,0.00,WUHU216HW,2013-06-22 00:56:00,
2013-06-21 21:01:00,75.2,56.4,30.20,NNW,338,1.1,1.1,52,0.00,,,0.00,WUHU216HW,2013-06-22 01:01:00,
2013-06-21 21:06:00,75.1,56.3,30.20,North,0,0.7,1.1,52,0.00,,,0.00,WUHU216HW,2013-06-22 01:06:00,
2013-06-21 21:11:00,74.7,56.4,30.20,NNE,23,0.0,1.1,53,0.00,,,0.00,WUHU216HW,2013-06-22 01:11:00,
2013-06-21 21:16:00,74.5,56.3,30.21,NNE,23,0.0,0.0,53,0.00,,,0.00,WUHU216HW,2013-06-22 01:16:00,
2013-06-21 21:21:00,74.2,56.3,30.21,NNE,23,0.0,0.0,54,0.00,,,0.00,WUHU216HW,2013-06-22 01:21:00,
2013-06-21 21:26:00,73.6,55.8,30.21,NNE,23,0.0,0.0,54,0.00,,,0.00,WUHU216HW,2013-06-22 01:26:00,
2013-06-21 21:31:00,73.3,56.0,30.21,NNE,23,0.0,0.0,55,0.00,,,0.00,WUHU216HW,2013-06-22 01:31:00,
2013-06-21 21:37:00,73.3,56.0,30.21,NNE,23,0.0,0.0,55,0.00,,,0.00,WUHU216HW,2013-06-22 01:37:00,
2013-06-21 21:42:00,72.7,56.0,30.22,NNE,23,0.0,0.0,56,0.00,,,0.00,WUHU216HW,2013-06-22 01:42:00,
2013-06-21 21:47:00,72.4,56.2,30.22,North,0,0.0,0.0,57,0.00,,,0.00,WUHU216HW,2013-06-22 01:47:00,
2013-06-21 21:52:00,72.2,56.1,30.22,North,0,0.0,0.0,57,0.00,,,0.00,WUHU216HW,2013-06-22 01:52:00,
2013-06-21 21:57:00,72.0,56.3,30.22,NNE,23,0.9,0.9,58,0.00,,,0.00,WUHU216HW,2013-06-22 01:57:00,
2013-06-21 22:02:00,71.8,56.3,30.22,NNE,23,0.2,0.9,58,0.00,,,0.00,WUHU216HW,2013-06-22 02:02:00,
2013-06-21 22:07:00,71.8,57.7,30.22,WNW,293,0.0,0.9,61,0.00,,,0.00,WUHU216HW,2013-06-22 02:07:00,
2013-06-21 22:12:00,72.0,57.8,30.23,NNE,23,0.0,0.2,61,0.00,,,0.00,WUHU216HW,2013-06-22 02:12:00,
2013-06-21 22:17:00,72.0,58.2,30.23,NNE,23,1.3,1.3,62,0.00,,,0.00,WUHU216HW,2013-06-22 02:17:00,
2013-06-21 22:22:00,72.0,59.1,30.23,North,0,0.4,2.2,64,0.00,,,0.00,WUHU216HW,2013-06-22 02:22:00,
2013-06-21 22:27:00,72.2,59.8,30.23,NNW,338,0.0,2.2,65,0.00,,,0.00,WUHU216HW,2013-06-22 02:27:00,
2013-06-21 22:32:00,72.0,59.6,30.23,NE,45,3.4,3.4,65,0.00,,,0.00,WUHU216HW,2013-06-22 02:32:00,
2013-06-21 22:38:00,72.0,59.6,30.23,NE,45,3.4,3.4,65,0.00,,,0.00,WUHU216HW,2013-06-22 02:38:00,
2013-06-21 23:00:00,71.5,60.0,30.23,North,0,0.4,0.4,67,0.00,,,0.00,WUHU216HW,2013-06-22 03:00:00,
2013-06-21 23:05:00,71.3,60.1,30.23,NNE,23,2.5,2.5,68,0.00,,,0.00,WUHU216HW,2013-06-22 03:05:00,
2013-06-21 23:10:00,71.1,60.0,30.23,NNE,23,0.0,2.5,68,0.00,,,0.00,WUHU216HW,2013-06-22 03:10:00,
2013-06-21 23:15:00,71.1,60.4,30.23,North,0,0.9,2.5,69,0.00,,,0.00,WUHU216HW,2013-06-22 03:15:00,
2013-06-21 23:20:00,70.9,60.7,30.23,NNE,23,1.8,1.8,70,0.00,,,0.00,WUHU216HW,2013-06-22 03:20:00,
2013-06-21 23:25:00,70.9,61.0,30.23,North,0,0.2,1.8,71,0.00,,,0.00,WUHU216HW,2013-06-22 03:25:00,
2013-06-21 23:31:00,70.7,60.8,30.23,NNE,23,0.7,1.8,71,0.00,,,0.00,WUHU216HW,2013-06-22 03:31:00,
2013-06-21 23:36:00,70.7,60.8,30.23,North,0,0.7,1.8,71,0.00,,,0.00,WUHU216HW,2013-06-22 03:36:00,
2013-06-21 23:41:00,70.6,61.0,30.23,North,0,1.6,1.8,72,0.00,,,0.00,WUHU216HW,2013-06-22 03:41:00,
2013-06-21 23:46:00,70.4,60.8,30.22,NNE,23,0.9,1.6,72,0.00,,,0.00,WUHU216HW,2013-06-22 03:46:00,
2013-06-21 23:51:00,70.4,60.8,30.22,SSE,158,0.4,1.6,72,0.00,,,0.00,WUHU216HW,2013-06-22 03:51:00,
2013-06-21 23:56:00,70.2,61.1,30.22,NNE,23,0.0,0.9,73,0.00,,,0.00,WUHU216HW,2013-06-22 03:56:00,